Location: ????????
(56.0167°N, 38.0333°E)
Time: 01:12:09
(UTC+00:00)

Cosmos 1328 Rocket - Pass Details

Date: 19 May 2025
Orbit: 596 x 618 km, 82.5° (Epoch: 13 June)

Event Time Altitude Azimuth Distance (km) Brightness Sun altitude
Exits shadow 21:46:15 22° 170° (S) 1,329 4.7 -13.9°
Maximum altitude 21:48:53 60° 97° (E) 694 3.8 -13.8°
Drops below altitude 10° 21:53:10 10° 18° (NNE) 1,966 7.5 -13.8°
Sets 21:55:25 0° 15° (NNE) 2,879 8.9 -13.7°
